EW0538 Weather Reports


time (UTC)temp
C
wind
direction
speed
KPH
gust
KPH
rain 1hr
cm
rain 24hr
cm
rain mn
cm
humidity
%
barometer
mb
20260505022827 8 296 1.6 0.0 0.58 0.46 0.46 89 1005.8
20260505021802 9 36 1.6 6.4 0.00 0.33 0.33 89 1005.3
20260505014522 10 340 0.0 0.0 0.00 0.23 0.23 76 1004.0
20260505013515 10 286 0.0 6.4 0.00 0.23 0.23 79 1004.1
20260505011433 10 297 1.6 9.7 0.00 0.23 0.23 82 1003.6
20260505010400 10 335 3.2 12.9 0.00 0.23 0.23 84 1003.4
20260505005348 10 302 3.2 12.9 0.00 0.23 0.23 85 1003.2
20260505004338 11 347 0.0 0.0 0.00 0.23 0.23 85 1003.0
20260505002301 11 18 0.0 1.6 0.00 0.23 0.23 82 1003.2
20260505000240 10 158 0.0 4.8 0.15 0.23 0.23 87 1003.7
20260504235244 10 328 0.0 0.0 0.20 0.20 0.20 86 1003.8
20260504234225 11 323 0.0 0.0 0.64 0.15 0.15 80 1003.9
20260504233230 11 8 0.0 3.2 0.00 0.10 0.13 76 1003.8
20260504232216 12 63 0.0 6.4 0.00 0.10 0.10 72 1003.6
20260504231218 13 335 1.6 9.7 0.00 0.10 0.10 66 1003.6
20260504230145 13 248 0.0 9.7 0.00 0.10 0.10 65 1003.3
20260504225203 13 114 0.0 0.0 0.00 0.10 0.10 62 1003.1
20260504224156 13 245 0.0 3.2 0.00 0.10 0.10 65 1003.3
20260504222054 12 128 0.0 8.0 0.00 0.10 0.10 71 1003.4
20260504221110 12 143 1.6 8.0 0.00 0.10 0.10 74 1003.5
20260504215000 12 124 1.6 0.0 0.00 0.10 0.10 71 1003.9
20260504213943 13 134 0.0 12.9 0.00 0.08 0.08 64 1004.2
20260504212917 12 253 1.6 12.9 0.00 0.08 0.08 67 1004.3
20260504210722 12 156 1.6 8.0 0.00 0.08 0.08 73 1004.9
20260504205719 12 128 0.0 1.6 0.00 0.08 0.08 75 1004.7
20260504204659 11 240 0.0 3.2 0.00 0.08 0.08 74 1004.7
20260504203701 11 105 0.0 0.0 0.00 0.08 0.08 77 1004.7
20260504202706 11 117 0.0 0.0 0.00 0.08 0.08 77 1004.9
20260504201644 11 263 3.2 14.5 0.00 0.05 0.05 73 1005.5
20260504200616 12 348 6.4 14.5 0.00 0.05 0.05 73 1005.0
20260504194425 14 0 0.0 0.0 0.00 0.05 0.05 64 1004.6
20260504193423 14 340 0.0 0.0 0.00 0.03 0.03 52 1004.5
20260504192414 15 127 1.6 11.3 0.00 0.03 0.03 52 1004.4
20260504191427 15 119 3.2 16.1 0.00 0.03 0.03 55 1004.7
20260504185307 13 169 1.6 11.3 0.00 0.03 0.03 58 1005.6
20260504184235 14 43 1.6 12.9 0.00 0.03 0.03 59 1005.4
20260504183236 13 99 3.2 12.9 0.00 0.03 0.03 58 1005.3
20260504182243 13 345 0.0 6.4 0.00 0.03 0.03 59 1005.3
20260504181241 14 91 1.6 6.4 0.00 0.03 0.03 65 1005.3
20260504180240 13 150 0.0 4.8 0.00 0.03 0.03 68 1005.5
20260504175242 12 146 0.0 11.3 0.00 0.03 0.03 72 1005.7
20260504174259 11 153 3.2 11.3 0.00 0.03 0.03 71 1006.0
20260504173246 11 156 0.0 4.8 0.00 0.03 0.03 73 1006.0
20260504171214 13 212 1.6 14.5 0.00 0.00 0.00 56 1006.4
20260504150502 9 340 0.0 4.8 0.00 0.00 0.00 73 1008.4
20260504141330 7 342 0.0 4.8 0.00 0.00 0.00 77 1008.9
20260504140349 7 345 0.0 4.8 0.00 0.00 0.00 77 1009.0
20260504081109 3 10 0.0 0.0 0.00 0.00 0.00 73 1007.6
20260504080128 3 314 0.0 0.0 0.00 0.00 0.00 75 1007.5
20260504070120 2 155 0.0 0.0 0.00 0.00 0.00 80 1007.6
20260504045822 5 155 0.0 0.0 0.00 0.00 0.00 61 1007.5
20260504044815 6 155 0.0 0.0 0.00 0.00 0.00 62 1007.6
20260504043806 6 155 0.0 0.0 0.00 0.00 0.00 62 1007.6
20260504042733 6 155 0.0 0.0 0.00 0.00 0.00 55 1007.5
20260504041727 7 155 0.0 0.0 0.00 0.00 0.00 58 1007.5
20260504040655 7 155 0.0 0.0 0.00 0.00 0.00 52 1007.3
20260504035704 8 155 0.0 0.0 0.00 0.00 0.00 48 1007.3
20260504031415 10 122 0.0 0.0 0.00 0.00 0.00 45 1006.9
20260504025259 12 123 0.0 0.0 0.00 0.00 0.00 39 1006.7
20260504024258 12 150 0.0 0.0 0.00 0.00 0.00 33 1006.6